Monticello, KY

6:32 AM EDT on July 21, 2017 (GMT -0400)
Wayne County

Weather History for KEKQ - March, 2013

Change the Weather History Date:

Wednesday, March 20, 2013

  Actual Average Record
Temperature  
Mean Temperature 35 °F -  
Max Temperature 50 °F 60 °F 84 °F (2012)
Min Temperature 20 °F 38 °F 18 °F (1965)
Degree Days  
Heating Degree Days 30    
Moisture  
Dew Point 20 °F    
Average Humidity 60    
Maximum Humidity 92    
Minimum Humidity 32    
Precipitation  
Precipitation 0.00 in - - ()
Sea Level Pressure  
Sea Level Pressure 30.12 in    
Wind  
Wind Speed 6 mph (ESE)    
Max Wind Speed 21 mph    
Max Gust Speed 33 mph    
Visibility 10 miles    
Events      
Averages and records for this station are not official NWS values.
T = Trace of Precipitation, MM = Missing Value Source: NWS Daily Summary

Daily Weather History Graph

Daily Weather History Graph

Search for Another Location

Airport or City:

Trip Planner

Search our weather history database for the weather conditions in past years. The results will help you decide how hot, cold, wet, or windy it might be!

Date:

Astronomy

Mar. 20, 2013 Rise Set
Actual Time 6:42 AM CDT 6:51 PM CDT
Civil Twilight 6:16 AM CDT 7:17 PM CDT
Nautical Twilight 5:46 AM CDT 7:47 PM CDT
Astronomical Twilight 5:16 AM CDT 8:18 PM CDT
Moon 12:33 PM CDT (3/20) 2:13 AM CDT (3/20)
Length of Visible Light 13h 00m
Length of Day
12h 08m
First Quarter, 59% of the Moon is Illuminated
Mar 20
First Quarter
Mar 27
Full
Apr 2
Last Quarter
Apr 10
New
Apr 18
First Quarter

Hourly Weather History & Observations

Time (CDT) Temp. Windchill Dew Point Humidity Pressure Visibility Wind Dir Wind Speed Gust Speed Precip Events Conditions
12:56 AM 26.1 °F - 22.1 °F 85% 30.21 in 10.0 mi Calm Calm - N/A   Clear
1:56 AM 24.1 °F - 21.0 °F 88% 30.20 in 10.0 mi Calm Calm - N/A   Clear
2:56 AM 22.1 °F - 20.1 °F 92% 30.20 in 10.0 mi Calm Calm - N/A   Clear
3:56 AM 21.0 °F - 19.0 °F 92% 30.19 in 10.0 mi Calm Calm - N/A   Clear
4:56 AM 21.0 °F - 19.0 °F 92% 30.18 in 10.0 mi Calm Calm - N/A   Clear
5:56 AM 20.1 °F - 18.1 °F 92% 30.19 in 10.0 mi Calm Calm - N/A   Clear
6:56 AM 22.1 °F - 20.1 °F 92% 30.19 in 10.0 mi Calm Calm - N/A   Clear
7:56 AM 29.1 °F - 23.0 °F 78% 30.19 in 10.0 mi Calm Calm - N/A   Clear
8:56 AM 37.9 °F 35.5 °F 25.2 °F 60% 30.18 in 10.0 mi NNE 3.5 mph - N/A   Clear
9:56 AM 45.0 °F 39.3 °F 17.1 °F 33% 30.16 in 10.0 mi East 11.5 mph - N/A   Clear
10:56 AM 45.9 °F 40.0 °F 17.1 °F 32% 30.14 in 10.0 mi East 12.7 mph 23.0 mph N/A   Clear
11:56 AM 46.9 °F - 19.0 °F 33% 30.13 in 10.0 mi East 16.1 mph - N/A   Clear
12:56 PM 48.9 °F - 21.0 °F 33% 30.10 in 10.0 mi East 12.7 mph 23.0 mph N/A   Clear
1:56 PM 50.0 °F - 21.0 °F 32% 30.05 in 10.0 mi ENE 11.5 mph - N/A   Clear
2:21 PM 48.2 °F - 21.2 °F 34% 29.99 in 10.0 mi ESE 15.0 mph 21.9 mph N/A   Scattered Clouds
2:56 PM 48.9 °F - 22.1 °F 35% 30.01 in 10.0 mi East 13.8 mph 19.6 mph N/A   Partly Cloudy
3:56 PM 46.9 °F - 22.1 °F 38% 30.00 in 10.0 mi ESE 20.7 mph 29.9 mph N/A   Partly Cloudy
4:56 PM 39.9 °F 30.2 °F 26.1 °F 58% 30.04 in 10.0 mi SE 20.7 mph 33.4 mph N/A   Partly Cloudy
5:56 PM 37.9 °F 28.2 °F 24.1 °F 57% 30.06 in 10.0 mi ESE 18.4 mph 25.3 mph 0.00 in   Scattered Clouds
6:56 PM 34.9 °F 24.9 °F 20.1 °F 55% 30.07 in 10.0 mi SE 16.1 mph 19.6 mph N/A   Partly Cloudy
7:56 PM 32.0 °F 22.1 °F 16.2 °F 52% 30.08 in 10.0 mi SE 13.8 mph 18.4 mph N/A   Clear
8:56 PM 30.0 °F 22.4 °F 15.1 °F 54% 30.09 in 10.0 mi SE 8.1 mph - N/A   Clear
9:56 PM 28.0 °F 17.0 °F 15.1 °F 58% 30.09 in 10.0 mi SE 13.8 mph - N/A   Clear
10:56 PM 26.1 °F 16.2 °F 14.0 °F 60% 30.09 in 10.0 mi SE 10.4 mph - N/A   Clear
11:56 PM 25.2 °F 16.5 °F 13.1 °F 60% 30.09 in 10.0 mi SE 8.1 mph - N/A   Clear